Wind_Speed
14 14 14 14 14 15 15 15 16 16 17 18 19 21 22 25 22 21 20 19 16 13 10 8 4 2 5 4 4 5 10 9 11 6 9 11 12 6 3 5 5 3 2 3 3 15 15
13 13 13 13 13 14 14 15 15 15 17 18 20 21 22 26 21 23 23 18 14 11 9 7 4 5 5 3 4 7 11 9 11 7 6 8 6 6 2 3 2 1 7 2 1 7 4
12 12 12 13 13 13 14 15 15 15 17 19 21 22 22 25 19 23 22 18 13 11 8 5 3 5 8 5 4 8 9 11 9 7 5 5 5 5 4 3 8 2 3 4 3 3 5
10 11 11 12 12 13 14 15 15 16 18 20 21 22 23 23 19 22 22 15 7 14 9 7 6 5 5 4 5 9 8 10 7 7 6 5 5 3 4 6 4 5 4 3 3 1 8
10 10 11 12 12 13 13 14 15 17 19 22 23 23 23 23 19 22 21 14 7 11 7 7 7 5 3 4 9 6 10 9 5 4 4 4 4 5 7 4 5 6 1 2 4 6 1
10 11 11 12 13 13 14 14 15 17 20 22 25 25 25 23 19 23 21 13 5 10 6 3 7 5 5 6 6 5 9 7 3 5 2 3 4 4 4 5 1 3 3 4 4 1 9
9 10 11 11 11 12 13 14 16 18 20 22 24 24 24 25 18 25 22 16 9 2 13 6 4 2 3 9 2 5 11 7 3 2 2 3 5 1 3 3 5 4 3 4 3 6 6
7 8 9 9 10 11 12 14 16 19 21 21 23 23 23 26 18 26 23 23 10 2 1 6 5 3 5 10 3 6 11 3 2 2 2 6 1 3 3 2 1 1 2 2 5 6 6
6 7 8 9 10 10 12 13 15 18 20 22 23 23 23 25 20 27 23 24 14 2 1 3 6 5 6 9 4 8 11 5 2 2 2 4 2 1 2 3 5 2 2 2 4 5 5
8 8 9 11 12 13 14 14 15 18 19 20 23 23 24 25 16 23 20 24 11 3 4 7 5 3 6 7 1 6 8 4 3 2 2 2 1 1 2 2 3 2 5 2 2 1 2
10 11 11 13 15 17 15 17 17 16 18 19 23 23 22 24 21 18 19 21 6 2 5 5 4 5 12 2 6 3 6 2 1 3 3 4 2 2 1 1 3 6 5 4 3 2 2
15 15 15 15 16 19 20 20 17 17 17 18 22 24 18 22 18 18 21 17 2 5 2 5 5 8 7 4 4 5 2 3 2 2 1 4 1 2 2 3 4 6 1 3 3 2 1
18 17 17 18 19 20 19 17 15 18 18 20 19 21 18 20 15 17 23 6 5 6 3 7 4 5 4 4 6 4 4 5 3 6 5 6 2 1 1 4 2 7 4 2 3 2 4
21 19 19 16 17 19 19 16 14 15 20 20 19 19 16 14 12 16 20 4 7 1 2 3 4 6 3 6 3 5 3 4 4 3 1 2 7 3 3 1 3 3 2 3 3 2 3
18 17 16 16 16 16 16 13 15 18 20 19 19 15 14 8 8 18 8 5 2 1 2 6 6 5 5 3 3 7 4 1 0 2 3 5 5 3 2 2 4 1 2 1 1 1 1
15 14 13 12 13 12 12 13 15 17 19 19 15 13 4 6 11 14 4 1 0 1 3 3 3 3 3 5 7 7 3 1 1 2 2 0 5 2 3 2 2 2 3 1 2 1 3
11 11 10 10 10 10 11 12 13 13 13 12 12 6 2 7 14 3 3 3 0 1 2 1 1 3 2 3 2 4 4 2 1 1 2 1 2 6 3 0 1 3 1 1 2 3 2
8 8 8 8 9 10 10 10 10 9 9 6 5 4 5 13 2 2 1 2 1 0 0 1 2 4 3 2 4 3 3 2 2 1 2 0 3 4 7 2 2 1 2 2 2 3 2
9 8 8 8 9 9 9 9 8 7 6 3 3 4 4 4 2 2 4 2 1 1 2 2 2 4 1 2 3 4 3 2 1 1 2 1 1 4 8 3 0 3 2 3 2 2 5
8 8 8 8 9 9 9 8 7 5 2 1 2 3 3 3 2 2 2 2 1 1 3 2 2 1 2 2 4 5 3 2 2 4 5 2 3 7 7 8 3 5 8 5 6 4 5
9 8 8 9 9 9 9 7 5 4 3 3 3 2 2 2 1 1 2 1 0 3 2 2 1 3 3 3 4 5 3 3 4 3 3 3 5 5 8 8 6 13 16 12 13 16 12
10 10 10 10 10 10 9 7 5 4 3 9 3 2 2 3 3 1 3 3 4 3 3 3 4 2 1 4 5 13 7 2 7 1 3 2 4 2 5 9 11 16 19 18 16 14 14
10 10 11 11 11 12 12 10 8 7 7 8 9 7 2 4 1 2 4 5 3 3 5 5 8 2 5 10 10 17 17 17 14 5 6 4 3 2 6 3 7 13 10 8 4 3 4
14 14 13 13 13 13 14 13 14 10 9 11 9 8 6 3 6 5 4 6 6 10 8 3 6 6 5 7 13 20 23 24 22 19 14 4 4 2 4 4 4 5 2 1 3 3 1
19 18 19 19 18 15 16 16 16 14 16 14 15 14 8 3 9 9 14 11 10 9 7 10 18 15 10 5 3 6 4 4 1 2 6 10 5 2 3 3 7 5 1 3 4 4 1
22 22 22 22 21 21 20 19 19 20 17 23 17 17 13 3 8 19 8 11 5 3 3 8 11 9 6 3 1 2 3 3 4 2 4 3 2 5 3 4 5 1 3 1 2 4 5
25 25 25 25 24 24 24 22 21 22 21 24 27 22 24 9 12 13 8 6 8 5 3 3 3 5 10 3 4 5 5 3 4 4 4 3 2 11 10 5 7 3 4 2 2 2 9
27 26 25 25 25 25 25 24 23 23 24 25 27 30 30 19 23 21 25 19 11 11 5 7 3 4 3 4 4 4 5 5 2 3 5 7 7 4 4 5 9 8 3 6 6 11 12
27 25 25 25 24 24 24 23 23 24 25 28 29 28 28 32 12 13 28 33 33 31 20 14 6 9 12 4 4 3 5 3 5 4 2 4 6 4 9 5 3 6 2 8 9 14 10
Wind_Direction
65 62 58 54 49 46 44 42 40 39 34 30 22 17 11 4 6 4 357 349 347 349 348 345 352 104 123 93 83 5 357 360 358 8 21 26 36 30 24 336 18 72 307 341 32 104 98
61 58 55 52 50 47 44 43 41 35 30 25 20 14 10 7 9 8 4 0 1 2 10 24 61 122 115 86 57 4 358 1 9 23 26 32 23 12 330 316 76 219 317 283 83 64 104
57 54 50 46 46 44 42 42 37 31 25 17 13 11 10 8 6 4 3 2 10 29 356 29 80 114 94 98 26 2 351 354 10 26 27 27 34 39 330 341 337 6 70 34 353 2 153
57 51 48 45 41 39 38 36 32 28 21 16 11 4 3 5 6 5 3 358 11 20 38 66 91 101 71 63 20 351 360 350 4 32 30 41 26 56 10 321 27 55 40 359 302 207 11
53 50 46 43 41 40 36 31 27 24 18 11 8 2 0 3 4 6 7 358 2 20 46 74 66 95 61 27 350 17 1 358 6 25 26 39 58 42 23 50 20 15 266 300 327 20 123
52 49 47 44 42 39 34 29 24 19 15 12 10 8 1 1 2 5 11 13 14 29 35 67 47 95 45 345 339 17 358 360 13 355 38 47 60 61 30 49 190 283 311 279 243 183 60
47 44 43 41 36 31 24 19 14 11 8 7 6 6 3 359 1 3 9 25 16 36 42 55 28 63 351 355 12 355 355 342 355 9 44 33 67 322 253 223 222 225 207 242 264 163 86
29 26 23 19 15 12 9 7 4 2 0 1 1 1 4 360 358 360 4 34 27 339 16 43 37 14 354 355 322 355 354 356 28 4 31 20 123 232 258 98 297 120 157 288 285 131 87
352 355 356 352 348 351 351 352 354 354 353 354 356 358 359 360 356 353 7 18 11 45 44 18 4 351 357 345 326 339 359 349 25 29 18 154 238 250 91 59 22 344 167 250 222 340 65
305 318 322 328 325 328 334 337 340 344 347 348 353 353 352 360 356 351 359 2 4 109 78 319 349 354 349 335 296 338 359 6 352 327 3 218 328 22 35 106 122 299 217 246 228 81 245
281 289 305 308 306 314 320 322 321 326 333 338 343 344 345 355 350 354 349 352 6 106 48 304 313 332 334 312 322 9 349 1 338 307 81 264 326 346 335 210 158 237 162 230 228 183 7
272 277 287 290 293 299 304 312 322 325 329 334 340 342 346 351 351 350 347 348 48 45 300 331 319 352 7 345 325 312 344 350 317 354 329 260 292 176 275 320 186 287 26 68 58 94 10
277 280 284 280 281 291 301 309 316 315 321 327 333 340 339 345 346 348 344 351 35 87 343 319 328 354 347 301 323 350 7 16 43 22 1 333 318 320 352 339 20 28 35 357 354 358 228
283 281 284 289 291 291 295 301 301 305 313 322 325 331 333 336 342 352 346 35 66 309 317 349 333 326 342 359 308 325 358 19 33 67 55 46 334 1 13 85 305 332 131 146 266 239 282
274 277 283 286 288 291 291 286 293 295 304 313 319 325 322 334 343 344 346 51 191 246 321 338 331 30 331 358 347 6 6 166 26 54 53 12 284 329 246 240 135 358 6 216 173 295 3
271 273 278 284 289 293 294 298 299 300 307 315 331 337 346 346 350 341 66 163 147 29 346 3 357 40 326 322 2 11 311 298 94 65 95 340 305 278 294 329 259 194 164 351 1 277 268
262 268 274 279 285 291 295 297 299 304 310 324 337 338 337 346 337 8 108 210 117 66 12 41 296 309 328 309 300 300 282 302 26 157 77 88 127 289 341 157 294 343 316 203 173 174 255
256 270 283 289 291 289 291 297 307 314 319 323 332 325 321 325 22 43 142 228 155 193 293 201 160 207 210 292 276 267 270 259 25 49 336 212 160 283 258 264 235 237 302 103 119 291 275
259 267 276 284 289 293 290 291 305 315 333 8 313 288 337 351 97 348 316 276 212 161 262 212 259 225 207 225 308 229 279 223 216 141 194 255 279 331 330 15 305 84 256 202 150 146 211
255 266 275 285 288 292 295 291 288 301 309 128 340 348 338 24 76 125 296 272 231 241 267 255 286 304 354 303 237 287 286 306 238 224 187 168 220 193 229 250 209 259 252 262 207 211 235
256 262 270 280 285 285 289 283 280 290 238 172 168 244 240 291 358 224 294 310 320 303 227 225 254 231 131 287 311 255 263 302 268 242 199 173 232 219 255 270 269 265 260 248 231 245 239
258 264 268 274 280 286 290 262 264 254 263 203 236 204 255 278 263 222 215 245 204 259 219 239 213 240 215 223 228 290 294 271 246 227 188 203 261 258 264 257 262 279 272 260 248 256 266
257 267 275 277 277 277 279 268 242 245 243 214 217 221 192 266 186 145 217 223 223 171 262 230 242 221 256 260 267 278 281 272 262 230 204 200 194 7 278 339 320 283 273 254 196 181 240
259 266 273 277 277 273 271 267 237 228 249 245 231 202 184 257 197 206 225 215 226 242 248 239 190 189 244 259 288 289 278 267 254 248 224 186 143 171 286 339 243 257 9 50 86 42 69
263 267 271 273 273 271 269 263 248 229 241 247 244 223 200 244 228 236 243 256 269 259 254 257 258 255 257 315 332 316 323 323 259 14 210 192 161 229 258 225 294 250 188 147 182 214 220
269 271 271 270 271 269 264 259 254 234 230 240 248 240 230 203 225 239 227 240 224 220 281 242 256 261 176 113 97 259 265 252 281 258 31 85 173 184 184 247 258 201 164 166 169 268 186
270 270 270 268 265 264 263 257 251 242 226 240 238 244 231 226 232 218 202 210 205 194 227 236 208 191 182 145 200 216 243 241 255 216 172 136 178 212 224 252 275 152 153 163 162 253 139
267 269 269 267 264 263 261 259 253 245 227 238 246 248 240 240 243 238 239 223 206 208 196 168 126 201 128 189 208 212 207 225 261 209 189 176 173 199 188 223 264 156 140 191 143 136 147
268 267 266 265 267 265 260 255 252 246 231 234 250 249 250 237 259 237 243 247 244 245 244 199 222 172 188 179 209 195 212 217 190 252 160 238 199 187 198 217 110 178 180 151 158 152 154
Height
1589 1588 1588 1587 1586 1585 1584 1582 1581 1579 1576 1574 1572 1569 1566 1562 1558 1554 1550 1547 1543 1540 1539 1537 1537 1537 1537 1538 1540 1540 1540 1538 1536 1535 1533 1532 1531 1533 1535 1534 1533 1535 1534 1533 1533 1533 1535
1591 1590 1589 1589 1588 1586 1585 1583 1582 1580 1578 1575 1572 1569 1566 1562 1558 1554 1550 1545 1542 1540 1538 1537 1536 1536 1537 1539 1540 1541 1539 1538 1536 1535 1534 1533 1534 1534 1535 1534 1535 1535 1533 1532 1533 1533 1534
1592 1591 1591 1590 1589 1588 1586 1585 1583 1581 1579 1576 1573 1570 1567 1562 1558 1554 1549 1545 1542 1540 1538 1537 1537 1537 1538 1541 1541 1541 1540 1538 1536 1536 1535 1534 1534 1534 1534 1534 1534 1535 1535 1534 1534 1534 1536
1594 1593 1592 1591 1590 1589 1588 1586 1584 1583 1580 1577 1574 1570 1566 1562 1558 1554 1550 1546 1543 1541 1539 1538 1538 1539 1540 1542 1542 1541 1540 1538 1537 1536 1535 1535 1534 1534 1533 1534 1534 1537 1539 1545 1536 1535 1536
1595 1594 1593 1593 1592 1591 1589 1588 1586 1584 1581 1578 1574 1570 1566 1562 1558 1555 1550 1546 1544 1542 1541 1540 1540 1539 1543 1544 1543 1541 1539 1537 1536 1536 1536 1536 1536 1537 1536 1541 1547 1546 1548 1542 1539 1535 1535
1596 1595 1594 1594 1593 1592 1591 1589 1587 1585 1582 1579 1575 1571 1566 1562 1558 1555 1551 1546 1543 1543 1541 1541 1541 1544 1544 1544 1541 1540 1538 1535 1535 1536 1537 1537 1537 1542 1545 1549 1559 1549 1548 1543 1542 1540 1540
1597 1597 1596 1595 1594 1593 1591 1590 1588 1585 1582 1579 1575 1571 1566 1562 1558 1554 1551 1547 1546 1545 1543 1544 1545 1544 1543 1542 1541 1539 1538 1537 1537 1536 1537 1536 1543 1548 1545 1544 1543 1543 1544 1545 1537 1537 1545
1598 1597 1597 1596 1595 1593 1592 1590 1588 1585 1582 1579 1575 1571 1568 1563 1558 1555 1551 1547 1549 1550 1548 1546 1546 1544 1544 1543 1541 1540 1539 1539 1538 1540 1538 1543 1545 1540 1540 1541 1541 1539 1539 1540 1537 1536 1543
1598 1597 1597 1596 1595 1594 1592 1590 1588 1585 1582 1579 1575 1572 1568 1564 1558 1555 1551 1551 1548 1548 1549 1548 1546 1546 1546 1546 1544 1542 1541 1539 1538 1539 1540 1545 1540 1537 1537 1541 1543 1543 1542 1540 1541 1536 1542
1598 1597 1596 1595 1594 1593 1592 1590 1587 1585 1582 1579 1575 1572 1567 1563 1560 1555 1552 1551 1549 1549 1555 1552 1548 1547 1545 1542 1543 1542 1541 1541 1539 1540 1540 1540 1537 1537 1537 1538 1540 1544 1539 1539 1539 1540 1545
1595 1595 1594 1594 1593 1592 1591 1588 1586 1584 1581 1579 1575 1571 1568 1562 1560 1557 1556 1551 1549 1551 1583 1552 1548 1546 1544 1544 1543 1541 1540 1539 1540 1540 1542 1540 1537 1537 1537 1536 1539 1538 1535 1537 1537 1540 1541
1592 1592 1591 1591 1591 1589 1588 1586 1584 1582 1580 1578 1575 1571 1567 1564 1560 1557 1553 1550 1551 1561 1584 1556 1551 1549 1547 1544 1543 1541 1540 1539 1539 1539 1539 1539 1538 1538 1537 1536 1536 1534 1534 1536 1540 1543 1553
1588 1588 1588 1587 1587 1586 1585 1584 1582 1580 1578 1577 1574 1570 1567 1564 1561 1557 1553 1551 1561 1574 1558 1558 1556 1552 1552 1548 1544 1542 1542 1545 1549 1553 1552 1544 1539 1537 1538 1538 1537 1537 1540 1547 1547 1552 1546
1584 1584 1583 1583 1583 1582 1581 1580 1579 1577 1576 1574 1572 1569 1566 1563 1561 1558 1554 1554 1569 1561 1561 1558 1555 1554 1553 1551 1548 1546 1545 1550 1548 1548 1557 1559 1555 1539 1539 1539 1542 1542 1543 1553 1543 1545 1543
1580 1579 1579 1579 1579 1578 1577 1576 1576 1574 1572 1571 1569 1567 1564 1562 1560 1558 1556 1570 1567 1564 1563 1562 1556 1557 1558 1553 1554 1552 1549 1551 1549 1548 1553 1558 1550 1540 1539 1538 1539 1540 1548 1543 1546 1546 1550
1576 1576 1576 1576 1575 1575 1574 1574 1573 1572 1570 1568 1565 1564 1563 1562 1560 1557 1558 1565 1564 1563 1562 1563 1565 1560 1562 1561 1560 1558 1553 1549 1549 1550 1550 1552 1558 1542 1538 1538 1539 1538 1540 1546 1552 1542 1538
1574 1573 1573 1573 1573 1573 1572 1572 1571 1570 1568 1566 1564 1562 1562 1561 1560 1558 1565 1565 1562 1562 1562 1564 1565 1565 1563 1563 1560 1558 1553 1549 1548 1548 1548 1550 1557 1548 1540 1539 1540 1542 1541 1541 1545 1548 1541
1570 1571 1571 1571 1571 1570 1570 1570 1569 1568 1567 1566 1565 1564 1561 1561 1561 1562 1563 1560 1560 1561 1561 1561 1561 1562 1562 1561 1560 1556 1554 1551 1550 1549 1550 1548 1555 1561 1547 1539 1539 1538 1539 1541 1547 1545 1549
1567 1568 1568 1568 1568 1568 1568 1567 1567 1567 1566 1566 1565 1563 1562 1561 1564 1565 1563 1562 1559 1561 1561 1561 1561 1561 1560 1561 1563 1557 1552 1549 1549 1549 1550 1551 1555 1561 1548 1542 1536 1536 1537 1537 1541 1546 1544
1565 1565 1565 1566 1565 1565 1565 1565 1565 1565 1566 1567 1567 1566 1563 1562 1564 1564 1564 1562 1561 1560 1560 1560 1561 1561 1561 1561 1559 1557 1553 1549 1549 1548 1548 1547 1554 1552 1554 1542 1539 1540 1534 1534 1536 1544 1530
1562 1562 1562 1562 1562 1562 1562 1562 1563 1564 1564 1566 1566 1566 1564 1565 1563 1564 1565 1563 1561 1562 1560 1559 1559 1560 1561 1564 1561 1557 1552 1550 1548 1547 1548 1549 1552 1551 1544 1540 1538 1533 1527 1525 1529 1521 1524
1559 1559 1559 1559 1559 1559 1559 1560 1561 1562 1563 1565 1566 1566 1566 1564 1563 1563 1564 1564 1562 1560 1559 1559 1559 1558 1560 1561 1558 1557 1556 1552 1549 1546 1547 1547 1548 1544 1545 1537 1535 1531 1521 1514 1514 1514 1513
1555 1556 1556 1556 1556 1556 1556 1556 1558 1560 1561 1562 1563 1565 1566 1564 1564 1565 1561 1560 1560 1560 1557 1556 1556 1557 1556 1554 1554 1552 1552 1550 1546 1545 1546 1547 1548 1549 1538 1537 1536 1523 1510 1508 1507 1510 1511
1551 1552 1553 1553 1554 1554 1554 1553 1554 1556 1557 1559 1560 1562 1564 1561 1561 1561 1558 1557 1557 1559 1557 1554 1554 1555 1552 1550 1550 1547 1543 1540 1539 1538 1541 1544 1546 1549 1547 1541 1538 1509 1514 1513 1514 1517 1518
1546 1547 1548 1549 1549 1549 1550 1551 1550 1553 1554 1554 1556 1557 1558 1558 1556 1556 1555 1556 1555 1555 1555 1552 1549 1549 1548 1549 1550 1546 1541 1538 1534 1535 1534 1535 1540 1547 1545 1540 1523 1509 1515 1514 1513 1515 1518
1540 1540 1541 1542 1543 1544 1545 1546 1547 1548 1550 1550 1550 1553 1553 1553 1549 1549 1550 1551 1552 1552 1552 1547 1545 1545 1547 1548 1552 1550 1541 1536 1534 1532 1534 1535 1536 1538 1540 1533 1523 1508 1516 1516 1515 1514 1513
1533 1534 1535 1535 1535 1537 1538 1539 1541 1543 1545 1545 1544 1547 1547 1545 1542 1545 1545 1546 1546 1546 1545 1543 1542 1544 1544 1547 1550 1546 1546 1538 1536 1532 1537 1541 1540 1534 1532 1527 1515 1513 1514 1516 1515 1510 1515
1525 1526 1527 1528 1529 1528 1530 1532 1533 1535 1539 1539 1539 1541 1540 1536 1533 1535 1538 1537 1539 1540 1538 1539 1542 1542 1544 1547 1543 1538 1541 1533 1531 1525 1528 1529 1532 1534 1529 1525 1514 1510 1514 1514 1513 1513 1515
1517 1518 1520 1521 1521 1521 1522 1523 1525 1528 1530 1533 1531 1535 1535 1531 1525 1525 1527 1527 1529 1530 1531 1530 1528 1528 1529 1532 1532 1530 1527 1525 1524 1524 1515 1519 1509 1512 1512 1501 1506 1508 1508 1509 1512 1512 1516